Englewood, Florida, United States (34223)
Lat: 26.96N, Lon: 82.35W
Wx Zone: FLZ060
Local Info
Past Weather Observations for Saturday, September 27, 2014

NOTE: This archive is for the closest National Weather Service station to Englewood. Information may differ from the station used for current weather conditions.

Click here for Long-term Archive

Time Weather Temperature Dewpoint Humidity Pressure Winds Precip Visibility
23:53
Clear
Light Rain
75°F / 24°C 73°F / 23°C 94% 30.04 in
(1017 mb)
NE 4.6 mph
(NE 7 kph)
0.08 in
(2.03 mm)
10SM
22:53
Mostly Cloudy
Rain
75°F / 24°C 73°F / 23°C 94% 30.04 in
(1017 mb)
N 4.6 mph
(N 7 kph)
0.17 in
(4.32 mm)
6SM
21:53
Mostly Cloudy
Rain
75°F / 24°C 73°F / 23°C 94% 30.04 in
(1017 mb)
NE 5.8 mph
(NE 9 kph)
0.15 in
(3.81 mm)
5SM
21:32
Mostly Cloudy
Thunder Storms
75°F / 24°C 73°F / 23°C 94% 30.04 in
(1017 mb)
ENE 4.6 mph
(ENE 7 kph)
0.08 in
(2.03 mm)
7SM
21:09
Mostly Cloudy
Light Rain
75°F / 24°C 75°F / 24°C 100% 30.04 in
(1017 mb)
N 5.8 mph
(N 9 kph)
0.02 in
(0.51 mm)
9SM
20:53
Overcast
Light Rain
75°F / 24°C 73°F / 23°C 94% 30.04 in
(1017 mb)
N 5.8 mph
(N 9 kph)
0.08 in
(2.03 mm)
7SM
20:41
Overcast
Heavy Rain
75°F / 24°C 73°F / 23°C 94% 30.04 in
(1017 mb)
N 6.9 mph
(N 11 kph)
0.07 in
(1.78 mm)
4SM
20:22
Overcast
Light Rain
77°F / 25°C 75°F / 24°C 94% 30.04 in
(1017 mb)
NE 4.6 mph
(NE 7 kph)
0.01 in
(0.25 mm)
10SM
19:53
Overcast
Light Rain
77°F / 25°C 75°F / 24°C 94% 30.01 in
(1016 mb)
N 4.6 mph
(N 7 kph)
0.21 in
(5.33 mm)
10SM
19:36
Overcast
Rain
75°F / 24°C 73°F / 23°C 94% 30.01 in
(1016 mb)
NNW 5.8 mph
(NNW 9 kph)
0.20 in
(5.08 mm)
3SM
19:31
Overcast
Heavy Rain
75°F / 24°C 73°F / 23°C 94% 30.01 in
(1016 mb)
N 10.4 mph
(N 17 kph)
0.19 in
(4.83 mm)
1 3/4SM
18:53
Overcast
Rain
77°F / 25°C 73°F / 23°C 89% 29.98 in
(1015 mb)
N 5.8 mph
(N 9 kph)
0.11 in
(2.79 mm)
6SM
17:53
Overcast
Light Rain
75°F / 24°C 73°F / 23°C 94% 29.98 in
(1015 mb)
SW 3.5 mph
(SW 6 kph)
0.18 in
(4.57 mm)
6SM
17:37
Overcast
Thunder Storms
75°F / 24°C 73°F / 23°C 94% 29.98 in
(1015 mb)
SSW 4.6 mph
(SSW 7 kph)
0.17 in
(4.32 mm)
10SM
17:30
Mostly Cloudy
Light Rain
75°F / 24°C 73°F / 23°C 94% 29.98 in
(1015 mb)
SW 4.6 mph
(SW 7 kph)
0.16 in
(4.06 mm)
10SM
17:23
Mostly Cloudy
Thunder Storms
75°F / 24°C 73°F / 23°C 94% 29.98 in
(1015 mb)
SW 5.8 mph
(SW 9 kph)
0.16 in
(4.06 mm)
10SM
17:13
Overcast
Thunder Storms
75°F / 24°C 73°F / 23°C 94% 29.98 in
(1015 mb)
SE 9.2 mph
(SE 15 kph)
0.16 in
(4.06 mm)
2SM
16:53
Overcast
Thunder Storms
75°F / 24°C 73°F / 23°C 94% 29.98 in
(1015 mb)
SSE 16.1 mph
(SSE 26 kph)
0.27 in
(6.86 mm)
1SM
16:49
Overcast
Thunder Storms
75°F / 24°C 73°F / 23°C 94% 29.98 in
(1015 mb)
S 17.3 mph
(S 28 kph)
0.19 in
(4.83 mm)
1 1/2SM
16:36
Overcast
Thunder Storms
79°F / 26°C 75°F / 24°C 89% 29.95 in
(1014 mb)
SW 10.4 mph
(SW 17 kph)
0.10 in
(2.54 mm)
8SM
16:15
Overcast
Thunder Storms
79°F / 26°C 72°F / 22°C 79% 29.95 in
(1014 mb)
Variable 3.5 mph
(Variable 6 kph)
0.08 in
(2.03 mm)
3SM
16:07
Mostly Cloudy
Thunder Storms
79°F / 26°C 72°F / 22°C 79% 29.95 in
(1014 mb)
ESE 15 mph
(ESE 24 kph)
0.07 in
(1.78 mm)
2 1/2SM
15:53
Partly Cloudy
Thunder Storms
86°F / 30°C 73°F / 23°C 66% 29.92 in
(1013 mb)
SE 13.8 mph
(SE 22 kph)
- 10SM
14:53
Mostly Cloudy
90°F / 32°C 75°F / 24°C 63% 29.95 in
(1014 mb)
NE 8.1 mph
(NE 13 kph)
- 10SM
13:53
Partly Cloudy
88°F / 31°C 73°F / 23°C 62% 29.95 in
(1014 mb)
E 8.1 mph
(E 13 kph)
0.07 in
(1.78 mm)
10SM
12:53
Partly Cloudy
90°F / 32°C 75°F / 24°C 63% 29.98 in
(1015 mb)
SE 6.9 mph
(SE 11 kph)
- 10SM
11:53
Partly Cloudy
90°F / 32°C 75°F / 24°C 63% 30.01 in
(1016 mb)
ESE 12.7 mph
(ESE 20 kph)
- 10SM
10:53
Partly Cloudy
88°F / 31°C 75°F / 24°C 66% 30.01 in
(1016 mb)
E 9.2 mph
(E 15 kph)
- 10SM
10:04
Partly Cloudy
84°F / 29°C 75°F / 24°C 74% 30.01 in
(1016 mb)
E 11.5 mph
(E 19 kph)
- 10SM
09:53
Mostly Cloudy
84°F / 29°C 75°F / 24°C 74% 30.01 in
(1016 mb)
E 9.2 mph
(E 15 kph)
- 10SM
08:53
Clear
81°F / 27°C 75°F / 24°C 84% 30.01 in
(1016 mb)
E 8.1 mph
(E 13 kph)
- 10SM
07:53
Clear
79°F / 26°C 73°F / 23°C 84% 30.01 in
(1016 mb)
E 9.2 mph
(E 15 kph)
- 10SM
06:53
Clear
75°F / 24°C 73°F / 23°C 94% 29.98 in
(1015 mb)
ENE 5.8 mph
(ENE 9 kph)
- 10SM
05:53
Clear
73°F / 23°C 73°F / 23°C 100% 29.98 in
(1015 mb)
ENE 5.8 mph
(ENE 9 kph)
- 10SM
04:53
Clear
73°F / 23°C 73°F / 23°C 100% 29.98 in
(1015 mb)
ENE 6.9 mph
(ENE 11 kph)
- 10SM
03:53
Mostly Cloudy
75°F / 24°C 73°F / 23°C 94% 29.98 in
(1015 mb)
NE 3.5 mph
(NE 6 kph)
- 10SM
02:53
Clear
73°F / 23°C 72°F / 22°C 94% 29.98 in
(1015 mb)
E 3.5 mph
(E 6 kph)
- 10SM
01:53
Mostly Cloudy
75°F / 24°C 73°F / 23°C 94% 29.98 in
(1015 mb)
ENE 6.9 mph
(ENE 11 kph)
- 10SM
00:53
Overcast
75°F / 24°C 73°F / 23°C 94% 30.01 in
(1016 mb)
NE 8.1 mph
(NE 13 kph)
- 10SM
Time Weather Temperature Dewpoint Humidity Pressure Winds Precip Visibility


Weather for websites

WeatherForYou.com, LLC is not responsible for any damages or problems caused by this service. Current weather conditions are obtained from the closest station including government and personal stations which may have varying degrees of accuracy. Weather forecasts are derived from the NOAA NDFD. Like all things, this site belongs to Jesus Christ... He just trusts me to maintain it. If you have any questions or comments email webmaster@weatherforyou.com

Copyright © 2014, WeatherForYou.com LLC. All rights reserved.